{"data":{"norad_id":67905,"intl_designator":"2026-036B","name":"STARLINK-36729","alt_names":[],"object_type":"PAYLOAD","status":"ACTIVE","operator":null,"country":"US","launch_date":"2026-02-22","launch_site_code":"AFETR","launch_vehicle":null,"mission":null,"orbit_class":"UNKNOWN","rcs_meters":null,"size_class":null,"mass_kg":null,"dimensions":null,"purposes":["comms"],"wikipedia_slug":null,"has_3d_model":false,"image_url":null,"decayed_at":null,"tle_current":{"epoch":"2026-05-24T18:32:01.302720Z","epoch_age_seconds":84911,"freshness":"FRESH","line1":"1 67905U 26036B   26144.77223730  .00007447  00000+0  27986-3 0  9998","line2":"2 67905  42.9989 175.9736 0001109 273.9120  86.1605 15.27581545 15356","mean_motion":15.27581545,"eccentricity":0.0001109,"inclination_deg":42.9989,"raan_deg":175.9736,"arg_perigee_deg":273.912,"mean_anomaly_deg":86.1605,"bstar":0.00027986,"rev_number":1535,"period_min":94.266653372014,"perigee_km":482.28356473274,"apogee_km":483.80537478274,"semimajor_km":6861.1814697577,"source":"CELESTRAK","updated_at":"2026-05-25T13:38:21.737405Z"}}}